Starlink 1625

operational
NORAD ID: 46131 Int'l Des: 2020-057 Owner: SPXS Country: US Constellation: starlink
LEOCIRCULARSTARLINK_TYPE

关于 Starlink 1625

正在加载描述...

实时位置

正在加载3D地球...

即将过境

高度历史

Altitude vs Time

uPlot chart will show altitude changes over time

两行轨道根数

1 46131U 20057Q 25258.01187452 .00002117 00000-0 16093-3 0 9992
2 46131 53.0550 5.2650 0001276 83.3381 276.7754 15.06407445281123
Epoch: Sep 15, 2025 • Age: 21 hours

当前状态

高度 547.2 km
速度 7.59 km/s
星下点 20.66°N, 66.17°E
发射日期 Aug 18, 2020
运行时间 5 years
类型 internet

技术详情

分类 Payload
质量 260.00 kg
干质量 248.00 kg
总质量 260.00 kg
长度 0.20 m
直径 2.80 m
跨度 9.00 m
形状 Box + pan
制造商 SPXS
平台类型 Starlink
阶段状态 In Orbit
所有者/国家 SPXS/US

大型星座

Loading constellations...